Waarnemingen

Advertentie
Mijn weer
Kleine Brogel, België (6479): temperatuur & dauwpunt: 23.06.2017 09:00:00 - 29.06.2017 09:00:00 (CEST)Kleine Brogel, België (6479): windsnelheid & windstoten: 23.06.2017 09:00:00 - 29.06.2017 09:00:00 (CEST)Kleine Brogel, België (6479): windrichting: 23.06.2017 09:00:00 - 29.06.2017 09:00:00 (CEST)Kleine Brogel, België (6479): luchtdruk: 23.06.2017 09:00:00 - 29.06.2017 09:00:00 (CEST)Kleine Brogel, België (6479): zicht: 23.06.2017 09:00:00 - 29.06.2017 09:00:00 (CEST)
Datum & Tijd tt [°C] td [°C] ff [km/u] ff [kn] fx [km/u] fx [kn] dd ppp [hPa] vv [km]
29.06.2017 09:00:00 15,6 15,2 14 8 25 14 WZW 996,3 2,5
29.06.2017 08:00:00 15,6 15,2 22 12 - - WZW 995,8 3,0
29.06.2017 07:00:00 16,1 15,5 4 2 14 8 - 995,3 14
29.06.2017 06:00:00 15,8 15,5 4 2 7 4 - 995,2 9
29.06.2017 05:00:00 15,6 15,5 4 2 - - - 995,0 8
29.06.2017 04:00:00 15,3 15,3 4 2 7 4 - 995,2 4,3
29.06.2017 03:00:00 15,3 15,1 7 4 11 6 WZW 995,3 4,1
29.06.2017 02:00:00 15,3 15,0 4 2 - - - 995,1 8
29.06.2017 01:00:00 15,5 15,2 4 2 11 6 - 995,0 18
29.06.2017 00:00:00 16,0 15,7 7 4 11 6 Z 995,5 16
28.06.2017 23:00:00 16,5 16,2 4 2 - - - 995,6 20
28.06.2017 22:00:00 18,3 15,4 4 2 4 2 - 995,8 9
28.06.2017 21:00:00 20,2 14,6 4 2 14 8 - 995,6 20
28.06.2017 20:00:00 21,1 14,3 11 6 - - WZW 995,8 20
28.06.2017 19:00:00 22,2 15,9 11 6 25 14 WZW 995,6 20
28.06.2017 18:00:00 21,2 15,2 18 10 32 18 ZW 995,9 20
28.06.2017 17:00:00 20,0 16,0 18 10 - - WZW 996,4 20
28.06.2017 16:00:00 19,2 16,3 22 12 36 19 WZW 996,7 20
28.06.2017 15:00:00 19,0 17,1 25 14 36 19 ZW 996,9 13
28.06.2017 14:00:00 18,1 17,6 18 10 - - ZW 996,8 15
28.06.2017 13:00:00 18,7 18,6 11 6 25 14 ZW 996,6 10
28.06.2017 12:00:00 18,0 16,4 11 6 25 14 ZZW 996,9 6
28.06.2017 11:00:00 20,3 18,4 7 4 - - ZZW 996,6 6
28.06.2017 10:00:00 20,7 17,8 7 4 14 8 ZZW 996,9 15
28.06.2017 09:00:00 19,7 18,3 7 4 14 8 Z 996,8 15
28.06.2017 08:00:00 18,6 17,5 4 2 - - - 997,0 10
28.06.2017 07:00:00 17,8 17,1 4 2 7 4 - 997,4 10
28.06.2017 06:00:00 16,5 16,0 4 2 4 2 - 997,6 10
28.06.2017 05:00:00 17,5 16,8 2 1 - - - 997,9 3,9
28.06.2017 04:00:00 17,0 16,5 4 2 7 4 - 998,4 8
28.06.2017 03:00:00 16,7 15,9 4 2 7 4 - 998,9 8
28.06.2017 02:00:00 17,8 16,4 4 2 - - - 999,7 10
28.06.2017 01:00:00 18,2 16,3 7 4 11 6 - 1000,7 12
28.06.2017 00:00:00 17,8 15,7 7 4 11 6 O 1001,2 13
27.06.2017 23:00:00 18,2 15,4 7 4 - - ONO 1002,0 14
27.06.2017 22:00:00 19,1 15,2 11 6 18 10 ONO 1002,7 17
27.06.2017 21:00:00 20,0 14,7 14 8 25 14 O 1003,1 16
27.06.2017 20:00:00 20,6 15,2 18 10 - - ONO 1003,7 20
27.06.2017 19:00:00 21,2 15,3 14 8 25 14 O 1004,2 17
27.06.2017 18:00:00 20,9 15,0 14 8 22 12 ONO 1005,2 14
27.06.2017 17:00:00 19,6 15,9 11 6 - - ONO 1006,3 15
27.06.2017 16:00:00 19,3 14,4 7 4 14 8 NO 1007,1 15
27.06.2017 15:00:00 18,6 13,8 11 6 18 10 ONO 1008,0 15
27.06.2017 14:00:00 18,8 13,2 11 6 - - ONO 1008,3 18
27.06.2017 13:00:00 18,0 12,4 11 6 18 10 ONO 1008,8 15
27.06.2017 12:00:00 17,8 12,0 11 6 18 10 O 1009,6 15
27.06.2017 11:00:00 17,5 10,6 11 6 - - NO 1010,0 20
27.06.2017 10:00:00 16,0 10,2 7 4 18 10 ONO 1010,3 20
27.06.2017 09:00:00 15,0 9,5 11 6 14 8 ONO 1010,5 20
27.06.2017 08:00:00 14,2 9,1 11 6 - - O 1010,7 10
27.06.2017 07:00:00 13,7 9,1 7 4 11 6 NO 1010,8 20
27.06.2017 06:00:00 13,1 8,7 11 6 14 8 NO 1011,6 10
27.06.2017 05:00:00 12,9 9,0 7 4 - - NO 1011,8 20
27.06.2017 04:00:00 13,2 8,9 11 6 14 8 NO 1012,3 20
27.06.2017 03:00:00 13,5 8,7 11 6 14 8 NO 1012,7 20
27.06.2017 02:00:00 14,2 8,5 7 4 - - N 1013,0 20
27.06.2017 01:00:00 15,3 8,3 7 4 14 8 NNO 1013,1 20
27.06.2017 00:00:00 16,0 7,5 7 4 11 6 NNO 1013,2 20
26.06.2017 23:00:00 17,0 7,4 7 4 - - N 1013,2 20
26.06.2017 22:00:00 18,6 8,1 7 4 18 10 N 1012,7 20
26.06.2017 21:00:00 20,7 7,7 11 6 18 10 N 1012,2 20
26.06.2017 20:00:00 21,8 6,2 7 4 - - N 1012,6 20
26.06.2017 19:00:00 23,3 5,6 7 4 22 12 NNO 1012,7 20
26.06.2017 18:00:00 24,2 5,8 7 4 22 12 WNW 1013,0 20
26.06.2017 17:00:00 24,2 6,9 11 6 - - NW 1013,2 20
26.06.2017 16:00:00 23,9 7,1 7 4 22 12 W 1013,7 20
26.06.2017 15:00:00 22,5 8,0 7 4 22 12 NW 1014,0 20
26.06.2017 14:00:00 22,2 8,5 11 6 - - NW 1014,2 20
26.06.2017 13:00:00 21,4 9,3 14 8 25 14 W 1014,2 20
26.06.2017 12:00:00 20,5 10,6 7 4 22 12 NNW 1014,1 20
26.06.2017 11:00:00 19,6 11,5 11 6 - - WNW 1014,3 20
26.06.2017 10:00:00 18,3 11,7 11 6 22 12 NW 1014,2 20
26.06.2017 09:00:00 17,2 13,6 7 4 18 10 NW 1014,0 20
26.06.2017 08:00:00 17,0 13,9 11 6 - - W 1013,7 20
26.06.2017 07:00:00 16,2 13,7 14 8 22 12 WZW 1013,2 20
26.06.2017 06:00:00 16,0 13,4 13 7 22 12 WZW 1012,8 10
26.06.2017 05:00:00 16,0 13,2 14 8 - - WZW 1012,8 19
26.06.2017 04:00:00 15,9 12,8 18 10 29 16 WZW 1012,8 20
26.06.2017 03:00:00 16,3 12,6 21 11 32 18 WZW 1012,7 10
26.06.2017 02:00:00 16,8 12,6 14 8 - - WZW 1013,0 20
26.06.2017 01:00:00 17,6 12,6 22 12 40 21 WZW 1012,8 20
26.06.2017 00:00:00 17,8 12,8 22 12 32 18 WZW 1012,8 20
25.06.2017 23:00:00 17,8 12,4 18 10 - - WZW 1012,8 20
25.06.2017 22:00:00 18,3 11,7 22 12 36 19 WZW 1012,7 20
25.06.2017 21:00:00 19,3 12,0 25 14 40 21 WZW 1012,7 20
25.06.2017 20:00:00 20,7 12,3 18 10 - - W 1012,5 20
25.06.2017 19:00:00 21,5 12,1 18 10 36 19 W 1012,3 20
25.06.2017 18:00:00 21,7 11,3 25 14 36 19 WZW 1012,6 20
25.06.2017 17:00:00 21,3 11,9 18 10 - - WZW 1012,7 20
25.06.2017 16:00:00 22,7 12,4 14 8 29 16 WZW 1013,2 20
25.06.2017 15:00:00 19,6 12,5 14 8 36 19 WZW 1013,6 20
25.06.2017 14:00:00 19,3 12,4 18 10 - - WZW 1013,3 20
25.06.2017 13:00:00 19,2 12,7 22 12 40 21 WZW 1013,2 20
25.06.2017 12:00:00 19,2 12,9 22 12 40 21 WZW 1012,7 20
25.06.2017 11:00:00 20,2 14,0 29 16 - - ZW 1012,5 20
25.06.2017 10:00:00 17,5 14,4 22 12 40 21 WZW 1012,6 20
25.06.2017 09:00:00 17,2 14,5 26 14 36 19 WZW 1012,1 10
25.06.2017 08:00:00 17,0 15,3 18 10 - - WZW 1011,8 20
25.06.2017 07:00:00 16,5 15,7 18 10 29 16 ZW 1011,8 20
25.06.2017 06:00:00 16,2 15,8 18 10 29 16 ZW 1012,0 20
25.06.2017 05:00:00 16,2 15,8 18 10 - - ZW 1012,2 20
25.06.2017 04:00:00 16,2 15,7 18 10 25 14 ZW 1012,5 4,5
25.06.2017 03:00:00 16,3 15,5 16 9 32 18 ZW 1012,7 10
25.06.2017 02:00:00 17,1 15,2 22 12 - - WZW 1013,1 3,3
25.06.2017 01:00:00 17,4 15,0 18 10 29 16 ZW 1013,3 10
25.06.2017 00:00:00 16,8 15,7 18 10 32 18 ZW 1013,8 10
24.06.2017 23:00:00 17,4 15,3 25 14 - - WZW 1014,3 20
24.06.2017 22:00:00 18,7 14,8 14 8 29 16 WZW 1014,1 20
24.06.2017 21:00:00 19,4 14,4 14 8 22 12 ZW 1014,1 20
24.06.2017 20:00:00 19,6 14,8 5 3 - - WNW 1014,5 10
24.06.2017 19:00:00 19,5 14,9 7 4 25 14 W 1014,7 7
24.06.2017 18:00:00 20,3 13,7 18 10 36 19 WZW 1015,0 20
24.06.2017 17:00:00 19,7 13,8 18 10 - - W 1015,5 20
24.06.2017 16:00:00 20,2 13,6 25 14 40 21 WZW 1015,6 20
24.06.2017 15:00:00 19,4 13,6 25 14 40 21 WZW 1015,8 20
24.06.2017 14:00:00 18,5 13,6 14 8 - - WZW 1016,2 20
24.06.2017 13:00:00 18,3 13,5 22 12 36 19 ZW 1016,2 5
24.06.2017 12:00:00 16,7 14,2 22 12 36 19 ZW 1016,3 10
24.06.2017 11:00:00 17,6 12,4 26 14 - - WZW 1016,2 10
24.06.2017 10:00:00 18,1 11,9 25 14 43 23 WZW 1016,2 20
24.06.2017 09:00:00 18,2 11,8 25 14 36 19 ZW 1016,2 20
24.06.2017 08:00:00 16,4 11,8 22 12 - - ZW 1015,8 20
24.06.2017 07:00:00 14,6 11,3 18 10 29 16 ZW 1016,2 20
24.06.2017 06:00:00 13,3 10,8 14 8 18 10 ZW 1016,6 20
24.06.2017 05:00:00 13,5 10,7 11 6 - - ZW 1016,7 20
24.06.2017 04:00:00 13,8 10,6 11 6 18 10 ZW 1017,2 20
24.06.2017 03:00:00 14,2 10,6 11 6 18 10 ZW 1017,2 20
24.06.2017 02:00:00 15,1 10,7 11 6 - - ZW 1017,2 20
24.06.2017 01:00:00 16,3 10,6 18 10 29 16 WZW 1017,7 20
24.06.2017 00:00:00 17,1 10,7 22 12 40 21 WZW 1017,7 20
23.06.2017 23:00:00 18,5 10,6 18 10 - - WZW 1017,7 20
23.06.2017 22:00:00 20,2 11,1 18 10 29 16 WZW 1017,1 20
23.06.2017 21:00:00 22,0 10,0 18 10 36 19 W 1016,7 20
23.06.2017 20:00:00 23,6 10,1 26 14 - - WZW 1016,2 10
23.06.2017 19:00:00 24,7 11,1 22 12 40 21 WZW 1015,8 20
23.06.2017 18:00:00 25,4 11,5 22 12 40 21 WZW 1016,0 20
23.06.2017 17:00:00 25,1 11,0 29 16 - - WZW 1016,1 20
23.06.2017 16:00:00 25,2 12,3 22 12 43 23 W 1016,2 20
23.06.2017 15:00:00 25,9 12,2 24 13 43 23 WZW 1016,2 10
23.06.2017 14:00:00 24,6 13,0 22 12 - - ZW 1016,3 20
23.06.2017 13:00:00 22,5 13,5 22 12 32 18 WZW 1016,7 20
23.06.2017 12:00:00 23,7 14,1 18 10 32 18 WZW 1016,3 20
23.06.2017 11:00:00 21,0 14,6 18 10 - - WZW 1016,2 20
23.06.2017 10:00:00 21,5 14,7 14 8 22 12 WZW 1015,7 20
23.06.2017 09:00:00 19,8 14,7 14 8 22 12 WZW 1015,6 20

tt = temperatuur
td = dauwpunt
ff = windsnelheid
fx = windstoten
dd = windrichting
ppp = luchtdruk
vv = zicht

Weerstations in de omgeving